[[{"header":{"parameterUnit":"m.s-1","parameterCategory":1,"la1":30.2992,"la2":30.254,"lo1":-89.0895,"lo2":-89.0443,"dy":0.0025,"dx":0.0025,"nx":19,"ny":19,"refTime":"2026-05-19T03:00:00:Z","depth":0,"parameterNumber":2,"parameterNumberName":"U-component_of_WINDS"},"data":[0,0,0,-3.9896,-3.9898,-4.0019,-4.002,-4.0181,-4.0182,0,0,0,0,0,0,0,0,0,0,0,-3.9862,-3.9864,-3.9895,-3.9898,-4.0019,-4.002,-4.0181,-4.0182,0,0,0,0,0,0,0,0,0,0,0,-3.9862,-3.9863,-3.9865,-3.9899,-4.0019,-4.002,-4.018,-4.0087,0,0,0,0,0,0,0,0,0,0,-3.9969,-3.994,-3.9863,-3.9865,-3.99,-4.0019,-4.002,-4.0082,-4.0093,-4.0129,0,-4.016,0,-4.0174,-4.0194,-4.0194,0,0,0,-3.9896,-3.9931,-3.9962,-3.9865,-3.9901,-4.0019,-3.9964,-4.0088,-4.01,-4.0143,-4.0162,-4.0168,-4.0177,-4.0195,-4.0195,-4.0408,-4.0409,0,0,-3.989,-3.9885,-3.9954,-3.9969,-3.995,-3.996,-3.9968,-4.0095,-4.0117,-4.0163,-4.0172,-4.0179,-4.0196,-4.0197,-4.0407,-4.0409,0,0,0,-3.9872,-3.9881,-3.9908,-3.9963,-3.9984,-3.9964,-3.9973,-4.0111,-4.012,-4.0174,-4.0181,-4.0197,-4.0199,-4.0406,-4.0408,-4.0456,0,0,0,-3.9868,-3.987,-3.9905,-3.9904,-3.9982,-4.0049,-3.9986,-4.0112,-4.0126,-4.018,-4.0197,-4.02,-4.0405,-4.0407,-4.0452,-4.0478,0,0,0,-3.9854,-3.9869,-3.9887,-3.9903,-3.9955,-4.0047,-4.0063,-4.0115,-4.0131,-4.0194,-4.0201,-4.0404,-4.0407,-4.0449,-4.0473,-4.0533,0,0,0,-3.9837,-3.9927,-3.9888,-3.9993,-3.9954,-4.0077,-4.0063,-4.0154,-4.0214,-4.0198,-4.0405,-4.0408,-4.0447,-4.0469,-4.0529,-4.0581,-4.0602,0,0,-3.9949,-3.9941,-4.0003,-3.9971,-4.0099,-4.0058,-4.0195,-4.0254,-4.0265,-4.036,-4.0366,-4.0453,-4.0472,-4.0532,-4.073,-4.0747,0,0,0,-4.0037,-4.0081,-4.0117,-4.0174,-4.0223,-4.0267,-4.0306,-4.0329,-4.0411,-4.0312,-4.0493,-4.0504,-4.0539,-4.0564,-4.0579,-4.0609,-4.042,-4.0419,-4.0419,-4.0186,-4.0196,-4.03,-4.0326,-4.0383,-4.0425,-4.0472,-4.051,-4.0502,-4.0545,-4.0572,-4.0691,-4.072,-4.0731,-4.0763,-4.0603,-4.0603,-4.0603,-4.0603,-4.0349,-4.0413,-4.0405,-4.0502,-4.0514,-4.0596,-4.0643,-4.0636,-4.0715,-4.067,-4.0702,-4.065,-4.0749,-4.0778,-4.0607,-4.0606,-4.0606,-4.0606,-4.0605,-4.0445,-4.0477,-4.0505,-4.0592,-4.0659,-4.0683,-4.0761,-4.0769,-4.0777,-4.0808,-4.0838,-4.0837,-4.0836,-4.0823,-4.0823,-4.0824,-4.0824,-4.0824,-4.0825,-4.0532,-4.0562,-4.0625,-4.0688,-4.0728,-4.0782,-4.083,-4.087,-4.0916,-4.0916,-4.0916,-4.0905,-4.0758,-4.072,-4.0831,-4.083,-4.0829,-4.0828,-4.0828,-4.0688,-4.0655,-4.0753,-4.0793,-4.087,-4.0936,-4.0948,-4.103,-4.1065,-4.1103,-4.1088,-4.0979,-4.097,-4.0959,-4.0927,-4.1085,-4.1085,-4.1085,-4.1085,-4.0767,-4.0765,-4.0869,-4.0933,-4.0998,-4.102,-4.1133,-4.1173,-4.1209,-4.1232,-4.1211,-4.1171,-4.1159,-4.1158,-4.1142,-4.1112,-4.1314,-4.1314,-4.1315,-4.0863,-4.0869,-4.0961,-4.0997,-4.1059,-4.1112,-4.1219,-4.1295,-4.133,-4.1324,-4.125,-4.124,-4.1175,-4.1154,-4.1141,-4.1116,-4.1062,0,0]},{"header":{"parameterUnit":"m.s-1","parameterCategory":1,"la1":30.2992,"la2":30.254,"lo1":-89.0895,"lo2":-89.0443,"dy":0.0025,"dx":0.0025,"nx":19,"ny":19,"refTime":"2026-05-19T03:00:00:Z","depth":0,"parameterNumber":3,"parameterNumberName":"V-component_of_WINDS"},"data":[0,0,0,2.5862,2.5862,2.5888,2.5888,2.5898,2.5898,0,0,0,0,0,0,0,0,0,0,0,2.5842,2.5842,2.5862,2.5862,2.5888,2.5888,2.5898,2.5898,0,0,0,0,0,0,0,0,0,0,0,2.5842,2.5842,2.5841,2.5862,2.5888,2.5888,2.5898,2.5886,0,0,0,0,0,0,0,0,0,0,2.5865,2.5835,2.5842,2.5841,2.5862,2.5888,2.5888,2.5886,2.5887,2.5877,0,2.5867,0,2.5882,2.5897,2.5897,0,0,0,2.587,2.5834,2.5853,2.5841,2.5862,2.5887,2.5878,2.5887,2.5888,2.5878,2.5867,2.5868,2.5883,2.5897,2.5897,2.5819,2.5818,0,0,2.5869,2.5839,2.5852,2.5853,2.585,2.5878,2.5879,2.5888,2.5872,2.5867,2.5868,2.5883,2.5897,2.5897,2.582,2.5819,0,0,0,2.5859,2.5838,2.5857,2.5852,2.5858,2.5878,2.588,2.5872,2.5881,2.5869,2.5883,2.5897,2.5897,2.582,2.5819,2.5755,0,0,0,2.5859,2.5832,2.5856,2.5837,2.5858,2.5866,2.5864,2.588,2.5882,2.5883,2.5897,2.5897,2.5821,2.582,2.5759,2.5729,0,0,0,2.5844,2.5831,2.5831,2.5836,2.5846,2.5866,2.5876,2.5881,2.589,2.5897,2.5897,2.5822,2.582,2.5762,2.5734,2.5701,0,0,0,2.582,2.577,2.5829,2.578,2.5846,2.5827,2.5876,2.5863,2.5861,2.5897,2.5821,2.5819,2.5763,2.5737,2.5704,2.5668,2.565,0,0,2.5741,2.576,2.5733,2.5787,2.5751,2.5826,2.578,2.5804,2.583,2.5821,2.5819,2.5757,2.5734,2.5702,2.556,2.5546,0,0,0,2.5698,2.5679,2.5676,2.5674,2.5694,2.5709,2.5744,2.5754,2.5748,2.582,2.5737,2.5724,2.5706,2.569,2.5678,2.5665,2.5811,2.5811,2.5811,2.5542,2.5582,2.5541,2.5584,2.5582,2.5622,2.5623,2.5643,2.568,2.566,2.5657,2.5567,2.5547,2.5538,2.5524,2.5641,2.5641,2.5641,2.5641,2.543,2.5409,2.5465,2.5446,2.5488,2.5471,2.5508,2.5536,2.5526,2.5571,2.5557,2.5604,2.5521,2.5511,2.5636,2.5637,2.5638,2.5638,2.5638,2.5332,2.533,2.5345,2.5349,2.5348,2.5393,2.5383,2.542,2.5455,2.5442,2.5444,2.5445,2.5451,2.544,2.544,2.544,2.5439,2.5439,2.5439,2.5225,2.5244,2.5232,2.5252,2.5258,2.527,2.5311,2.5317,2.5333,2.5362,2.5362,2.5402,2.5506,2.5532,2.5434,2.5435,2.5436,2.5436,2.5436,2.5097,2.5133,2.5113,2.512,2.5148,2.5145,2.5195,2.5205,2.5215,2.5209,2.5253,2.5324,2.5345,2.5355,2.5377,2.5245,2.5245,2.5245,2.5245,2.5014,2.503,2.5021,2.5029,2.5041,2.5085,2.5062,2.5094,2.5132,2.5141,2.5166,2.5198,2.5207,2.5223,2.5235,2.5256,2.5097,2.5096,2.5096,2.4938,2.4958,2.4931,2.4973,2.4998,2.5019,2.4999,2.5005,2.5055,2.5091,2.515,2.5156,2.5208,2.5222,2.5257,2.5276,2.5315,0,0]}]]